Presure
186 161 161 182 155 152 148 161 197 185 163 160 159 170 197 207 188 156 147 163 178 210 213 190 199 192 186 189 167 152 199 187 188 189 191 192 197 203 201 187 167 187 204 202 191 197 187
199 189 202 204 195 193 197 188 209 207 195 180 167 217 219 214 206 192 198 215 193 197 181 180 183 181 183 192 186 197 196 198 179 190 196 198 201 198 194 191 194 201 172 168 169 215 190
189 183 173 169 178 172 172 187 202 214 217 213 196 201 172 137 158 202 173 200 193 190 194 183 186 197 196 198 196 188 190 186 192 195 178 199 183 202 183 186 195 184 191 203 177 168 198
164 167 173 169 163 163 158 156 180 181 171 169 171 165 173 168 191 164 170 152 126 151 158 161 157 188 184 190 187 186 192 194 193 185 195 183 187 200 200 198 197 202 198 204 199 199 194
175 152 161 158 157 159 157 164 161 161 165 153 162 164 165 187 160 173 162 158 188 192 197 172 191 170 190 167 178 200 184 189 191 190 192 190 192 200 194 190 195 195 198 191 191 196 202
136 170 178 180 152 171 158 157 170 166 159 176 187 159 154 163 206 151 158 181 182 173 203 163 196 185 170 199 202 209 221 211 207 208 207 195 193 189 193 196 194 189 184 185 193 197 213
181 152 153 176 172 168 165 146 161 161 166 162 154 150 151 183 146 163 171 198 176 169 159 159 152 158 186 188 146 199 215 210 213 208 202 199 204 195 194 188 189 188 192 193 203 195 199
164 161 164 145 175 156 166 169 172 183 167 189 181 164 165 171 151 154 174 161 144 164 158 157 186 153 197 148 157 195 182 196 229 200 209 225 221 212 203 199 202 205 203 200 205 208 204
170 141 153 166 143 161 172 170 138 162 138 147 162 153 161 167 149 153 176 151 163 159 170 159 174 179 169 140 134 186 174 172 196 188 182 204 169 221 221 192 201 198 202 190 204 205 184
149 171 161 161 167 158 153 167 161 161 157 164 149 151 145 166 155 149 167 162 148 183 147 170 154 167 176 155 172 143 170 187 186 170 148 175 161 204 154 215 225 184 210 203 184 213 201
153 153 137 171 163 155 150 160 162 154 176 151 166 163 152 161 161 162 163 154 154 159 155 157 152 161 161 165 158 147 189 175 150 184 172 202 159 183 206 174 186 213 220 201 226 210 193
164 161 158 152 162 166 161 168 163 155 139 125 175 160 146 145 147 143 173 160 146 150 174 165 168 161 159 182 167 176 177 176 184 191 179 195 177 197 181 197 200 197 214 213 219 226 220
163 152 162 150 163 160 162 162 161 155 164 143 167 134 145 168 178 171 147 163 159 161 178 157 171 150 148 134 167 165 182 148 184 178 187 183 183 191 197 174 194 188 195 223 226 217 219
153 169 152 157 178 165 159 154 163 164 150 159 162 153 162 152 153 149 150 142 155 166 140 154 157 194 174 152 182 153 144 170 182 169 185 182 193 175 199 188 186 190 210 211 223 209 216
161 143 162 164 150 136 143 169 155 159 136 163 160 163 161 156 169 162 143 161 149 145 163 165 171 162 174 166 176 181 184 181 194 141 172 185 181 187 186 178 185 195 212 200 205 204 203
163 152 140 172 151 160 167 158 144 151 148 150 150 125 163 135 162 149 163 146 139 172 165 175 171 142 167 183 156 188 143 180 138 186 139 195 187 185 189 187 180 206 204 205 212 207 209
153 142 162 162 169 171 167 168 147 163 162 169 167 146 151 148 171 155 156 134 160 158 155 163 165 166 176 160 156 176 170 166 150 166 173 184 194 192 189 181 202 205 199 212 213 225 203
153 163 156 162 165 175 163 156 155 151 149 131 172 162 146 143 167 149 157 165 155 155 163 161 178 137 187 191 145 176 137 180 192 140 186 194 184 195 183 194 192 198 207 230 218 210 231
177 139 165 152 126 175 172 161 176 162 162 169 166 161 166 155 165 165 167 154 150 163 149 148 164 178 144 147 166 180 175 191 146 178 188 188 190 202 211 221 205 203 236 219 220 209 212
162 160 164 148 158 159 142 139 170 154 142 175 164 151 170 125 150 157 153 146 169 164 165 138 172 167 162 156 173 180 165 182 183 191 202 203 218 196 203 216 207 203 234 226 212 221 209
135 153 155 166 164 153 164 154 137 156 170 165 154 155 155 150 161 166 167 151 137 162 170 160 178 175 171 175 161 150 163 179 190 150 196 194 213 204 202 200 210 235 215 209 219 220 202
157 157 168 176 162 145 134 148 158 174 169 144 151 157 186 194 151 126 160 167 131 184 174 167 166 159 168 143 175 179 165 195 198 192 191 218 190 198 169 206 235 218 217 216 214 210 208
173 163 158 165 161 135 162 151 158 151 128 158 137 151 159 137 162 134 156 170 155 167 171 160 167 136 180 172 144 180 197 206 222 219 220 175 188 212 211 227 219 231 218 194 218 205 245
145 157 161 160 162 170 167 167 156 151 169 174 148 172 167 162 162 170 165 155 173 175 161 163 176 157 177 158 182 172 217 209 204 218 191 216 210 213 241 228 220 216 192 209 216 234 230
171 171 168 171 164 165 167 159 169 157 184 174 161 139 147 126 178 163 170 144 179 181 174 177 181 179 173 146 180 164 189 207 202 202 228 171 211 231 214 219 211 211 204 225 219 236 286
170 177 166 168 171 157 170 176 163 160 185 171 184 161 159 180 162 186 188 168 179 153 168 181 174 173 187 188 209 199 211 205 215 209 210 217 234 231 216 226 228 212 235 228 279 372 432
165 179 181 174 181 169 152 165 161 174 172 175 172 166 179 153 186 163 173 182 158 161 155 168 179 177 188 173 194 199 205 219 192 178 199 237 229 218 238 211 209 227 229 279 448 379 444
175 177 172 162 174 170 174 175 175 169 164 159 174 165 148 174 179 168 185 170 173 171 178 186 164 188 185 208 174 196 229 193 182 223 237 229 224 221 211 217 231 229 287 454 448 429 423
179 173 174 171 183 178 149 171 171 160 162 147 128 176 173 167 175 183 182 180 188 150 186 152 188 182 199 189 199 224 193 218 230 231 220 226 229 227 221 214 234 288 457 446 431 414 397
Wind_Speed
11 12 13 12 16 17 18 17 20 18 17 19 18 18 19 19 18 18 22 21 20 15 12 24 17 22 25 26 28 29 24 30 27 28 26 26 24 24 24 30 36 32 28 34 40 39 45
4 4 3 4 7 9 8 9 7 7 10 13 16 10 8 11 12 13 14 7 15 15 20 24 25 28 29 28 27 25 26 27 32 29 28 30 30 29 30 30 31 30 45 46 47 34 46
10 7 6 8 2 7 7 8 11 7 4 7 10 11 16 20 20 11 18 12 17 16 15 22 25 24 27 28 29 33 33 35 34 32 35 34 35 35 33 35 34 36 37 36 50 51 40
14 11 6 8 14 17 20 20 6 6 5 7 8 9 13 17 14 21 19 22 23 27 28 28 32 29 33 34 36 37 39 39 39 38 40 38 39 41 41 40 40 41 42 42 43 44 46
5 19 16 19 20 20 20 15 16 17 14 22 16 14 17 17 19 21 25 26 19 23 24 30 32 35 38 36 41 48 47 48 48 47 48 49 48 45 46 46 46 45 47 49 49 52 55
31 12 10 12 24 15 22 24 15 16 20 13 12 18 22 23 12 26 27 22 25 29 26 34 33 35 37 41 45 47 46 49 54 49 42 47 46 50 51 50 50 51 52 54 59 61 58
9 26 23 13 13 17 16 26 21 22 22 22 23 27 27 10 26 24 24 23 27 32 35 37 39 41 46 48 36 50 36 40 43 48 49 49 47 50 52 56 57 58 61 63 63 60 60
17 21 15 31 14 25 18 19 19 12 21 17 14 24 23 19 32 30 21 29 35 38 40 37 41 37 45 43 43 43 62 51 27 36 37 38 41 46 50 54 56 55 54 60 61 62 61
26 34 27 24 35 25 19 18 32 21 30 30 26 27 28 29 36 37 34 37 31 35 33 38 47 47 47 41 38 49 42 62 46 38 53 41 63 46 45 58 60 60 55 67 55 60 58
27 29 27 28 24 30 30 23 25 27 31 24 34 33 39 30 35 37 33 33 40 46 45 45 43 50 51 51 53 50 57 51 54 65 49 63 45 60 42 54 46 70 51 58 74 59 65
28 27 39 32 30 31 30 27 27 32 25 38 32 31 33 31 32 35 38 34 41 40 40 44 48 49 48 54 54 51 59 58 54 58 61 58 66 55 69 61 59 60 61 72 63 63 79
45 39 38 32 37 32 29 31 30 33 39 36 36 33 41 42 41 43 46 42 46 44 54 53 55 53 50 64 56 62 62 58 61 63 56 63 54 75 63 76 73 73 70 73 68 70 65
43 35 44 34 41 36 38 38 35 37 42 44 44 44 40 47 46 46 43 47 48 53 60 51 61 49 59 52 59 59 71 57 69 58 68 57 63 80 82 70 79 75 82 76 73 72 71
43 53 38 40 45 47 40 38 45 49 40 43 46 43 49 43 41 41 46 48 50 65 55 50 56 68 75 54 76 52 63 67 75 57 77 69 80 66 89 81 82 90 85 85 77 77 78
48 40 50 51 38 45 43 49 42 46 44 55 53 56 54 47 58 57 47 59 50 50 69 72 78 66 77 71 79 74 78 81 82 57 62 81 79 88 89 78 90 102 89 89 87 88 86
54 53 47 58 41 54 53 47 47 48 42 48 46 41 59 46 61 50 63 53 56 80 76 81 85 56 83 88 60 86 66 87 60 89 60 98 93 91 101 93 92 97 93 95 94 90 87
47 45 60 55 61 68 62 63 39 61 61 66 61 54 52 54 67 59 61 54 71 74 55 79 82 78 97 69 72 90 85 84 72 82 91 96 99 102 97 90 103 102 93 94 95 88 100
53 64 54 62 66 72 62 55 53 50 44 48 71 71 56 47 75 65 69 82 64 68 83 78 97 58 95 97 57 95 63 99 102 71 102 106 93 109 92 103 98 114 106 98 92 95 96
74 59 71 49 52 70 68 56 76 65 64 70 73 70 77 69 79 79 83 73 63 85 55 63 85 96 68 63 86 105 99 107 69 99 105 105 104 116 111 103 105 112 97 90 91 99 97
76 66 77 49 60 48 46 47 69 55 44 74 70 60 80 49 62 78 76 74 90 83 91 67 90 84 73 73 100 94 91 102 111 116 117 120 108 114 116 109 113 94 96 95 102 102 108
58 61 65 77 75 51 61 59 51 60 74 69 59 65 71 74 85 88 90 73 58 87 97 78 102 101 93 105 78 77 79 107 123 72 124 108 120 107 119 110 117 101 100 103 107 109 103
72 73 92 93 76 52 55 56 61 79 73 52 55 63 79 89 70 47 81 93 61 100 100 92 84 82 94 71 97 116 81 125 121 124 119 110 112 117 83 119 107 101 105 107 110 116 119
98 86 76 85 83 56 75 56 71 58 54 67 53 62 69 57 84 56 76 97 76 94 97 80 89 65 117 97 68 116 123 122 112 112 109 91 106 119 112 111 107 109 106 103 117 116 131
67 79 90 83 81 88 79 82 58 60 79 87 61 91 82 78 79 90 83 72 107 105 77 72 109 77 110 74 118 98 118 121 122 118 122 105 120 118 107 108 102 106 101 116 120 125 129
100 100 101 104 91 91 85 69 81 57 109 89 65 64 66 54 96 68 95 73 110 115 104 114 119 116 101 73 116 90 131 116 130 134 107 89 122 117 112 108 111 115 116 122 124 128 139
100 107 101 98 102 75 103 107 80 63 115 94 103 70 75 106 67 113 112 88 112 81 92 119 104 102 132 134 122 134 122 137 120 104 126 120 115 110 111 115 114 120 123 126 139 103 53
87 110 110 109 115 96 68 100 75 109 98 95 102 85 113 55 112 63 78 111 88 70 82 82 120 115 133 103 140 121 106 119 121 89 114 114 113 109 121 116 120 123 128 140 52 86 39
106 111 101 89 112 89 110 113 114 102 94 70 113 75 48 93 105 83 124 97 108 90 115 125 87 129 121 132 96 104 107 112 94 116 114 111 111 111 120 120 122 126 140 49 44 43 36
112 108 112 100 115 111 72 104 101 85 81 48 48 108 98 76 101 126 124 118 128 61 128 72 129 114 142 132 150 120 127 123 112 113 113 114 114 113 120 122 126 137 43 39 38 37 35
Wind_Direction
236 245 248 260 252 259 266 275 279 281 285 286 291 294 291 289 293 291 295 302 308 316 323 311 316 312 309 307 302 299 310 300 303 298 293 286 285 289 276 275 277 271 268 264 267 265 267
63 265 339 304 256 262 282 291 307 309 308 305 305 305 319 316 318 314 313 337 311 316 313 312 309 309 308 300 297 302 310 308 298 299 302 303 302 291 285 277 279 282 277 276 276 281 269
93 115 218 248 107 267 277 41 33 9 357 344 355 342 321 301 295 317 310 314 317 308 303 306 304 318 311 316 306 301 302 299 300 300 296 305 291 305 287 287 288 277 276 282 266 274 269
251 249 202 233 252 258 267 274 18 37 351 326 349 314 340 332 326 315 332 310 296 303 309 308 312 310 313 312 311 310 307 306 306 303 306 298 299 304 302 299 299 302 295 297 289 288 277
254 268 258 264 271 277 278 275 279 286 294 286 297 313 319 314 317 330 320 314 327 323 315 318 317 316 316 320 317 312 317 312 310 309 306 304 303 303 300 298 301 301 301 295 293 294 296
278 259 280 297 269 278 276 284 308 302 292 313 349 307 299 311 15 306 313 328 329 322 338 316 327 326 321 325 317 319 309 304 303 307 309 305 305 302 303 304 303 299 297 296 297 295 297
263 279 274 278 280 275 274 280 294 295 303 301 303 300 305 321 305 309 311 357 330 321 316 319 314 323 330 330 313 327 332 317 304 304 306 305 303 301 298 299 298 297 295 293 294 295 293
255 258 266 275 286 279 267 280 268 297 283 321 296 283 301 295 302 304 313 310 306 321 320 321 334 315 335 321 317 326 324 324 333 314 322 318 308 297 290 290 290 292 293 293 294 289 288
285 264 259 278 280 288 277 278 292 271 291 293 313 289 306 309 297 298 328 302 315 318 325 319 338 332 330 313 299 326 318 323 324 316 313 331 315 335 307 301 292 292 286 296 288 289 293
261 274 274 280 292 269 269 294 265 272 274 286 281 286 293 299 293 298 315 309 304 324 309 327 320 333 331 319 327 315 323 319 312 311 308 311 314 339 298 327 314 298 291 286 296 285 282
271 268 267 279 280 287 291 280 275 281 309 279 308 306 282 305 308 312 313 298 305 317 311 317 315 324 322 328 324 314 328 321 317 321 305 339 310 311 336 306 318 320 314 300 308 287 292
276 281 271 272 284 285 285 286 288 277 290 295 302 294 293 290 290 294 315 310 298 309 321 323 322 318 321 321 320 321 324 321 326 329 320 337 309 334 308 328 326 324 318 313 309 306 294
267 270 271 266 284 285 285 292 290 284 295 277 302 296 295 309 307 311 300 315 315 319 319 318 325 308 307 309 322 322 324 311 324 323 329 328 328 333 331 306 326 310 320 319 312 305 301
271 262 273 282 269 284 283 293 292 291 285 298 298 295 302 290 294 295 296 296 312 322 302 314 316 313 322 305 318 309 308 319 323 314 328 327 331 316 329 323 319 324 320 319 312 307 302
272 263 274 262 276 268 284 277 290 290 280 293 298 300 303 304 305 312 290 316 307 303 319 322 321 323 320 321 322 322 322 319 322 309 314 329 329 328 328 316 323 323 321 316 313 307 304
267 264 267 265 273 280 273 289 282 285 288 294 295 288 303 287 309 302 313 299 303 315 322 316 320 298 323 319 313 322 305 320 308 326 304 327 327 324 325 322 318 321 320 317 310 305 299
268 257 269 270 274 269 271 274 286 290 294 291 292 293 300 293 300 307 314 303 319 308 318 323 319 314 317 322 314 323 316 314 313 315 320 324 324 325 321 319 325 325 316 312 307 309 298
270 268 265 271 275 265 273 283 294 295 291 283 286 298 294 289 303 295 311 312 318 310 316 318 314 293 314 314 310 322 306 324 325 305 323 322 324 321 317 323 319 324 318 310 309 303 314
255 257 267 267 268 270 271 284 273 277 292 285 290 296 294 299 304 305 302 309 309 315 302 294 316 317 304 297 324 322 326 324 306 322 322 322 321 320 323 319 320 321 310 309 308 300 305
265 256 260 277 274 281 268 280 282 295 283 279 296 299 297 282 303 306 310 298 307 309 311 289 309 316 315 304 320 314 316 322 322 324 321 322 318 322 324 319 321 314 317 313 308 311 305
254 264 263 268 273 280 283 289 266 288 285 293 295 301 302 300 302 303 302 303 289 304 310 309 315 312 315 321 315 309 314 324 325 304 321 321 320 319 323 319 318 316 315 310 314 311 313
269 270 270 267 279 263 261 281 290 284 279 279 290 294 291 286 299 289 306 306 287 307 305 312 310 310 316 295 315 322 309 320 319 322 323 315 320 319 311 317 314 317 314 311 309 308 310
262 268 271 272 273 261 281 276 284 276 277 292 279 292 289 289 301 293 297 303 300 305 305 305 310 299 317 317 300 321 317 315 313 312 315 307 314 317 316 313 315 319 314 314 307 312 310
257 268 268 273 276 280 280 281 272 268 293 294 285 298 299 293 298 304 301 295 307 305 297 300 312 295 316 299 319 314 312 315 317 316 319 311 317 315 311 314 316 313 314 309 310 309 309
263 266 270 271 277 281 282 274 286 263 289 294 290 274 285 286 303 292 303 283 306 306 306 309 309 314 317 306 313 309 319 313 317 318 310 313 315 312 312 312 309 307 312 309 310 310 308
263 261 271 273 273 276 280 280 284 283 286 294 290 283 279 300 287 303 302 305 305 303 307 310 312 312 311 311 309 314 312 314 312 310 315 313 311 313 309 313 311 310 311 310 311 310 299
263 263 263 268 269 272 277 281 282 285 291 292 293 292 296 268 299 295 304 306 305 295 299 307 309 311 310 311 312 313 308 311 313 311 313 312 316 311 315 312 311 312 312 311 304 310 303
260 262 262 270 270 271 274 276 279 286 281 287 292 292 265 297 296 304 302 308 308 308 307 305 299 308 312 307 312 307 307 311 311 310 312 315 312 309 306 309 311 311 311 305 304 302 305
258 260 262 266 266 270 272 276 278 279 285 271 281 291 292 298 300 298 301 301 302 294 304 298 309 309 305 311 310 307 312 310 308 311 310 313 315 311 308 310 311 312 301 302 300 302 303